This is the latest recevied weather packets stored in our database for station/object OE-11051. If no packets are shown the sender has not sent any weather packets the latest 10 day(s).
| Time | Temp. | Humidity | Pressure | Rain* | Wind** | Luminosity | Snow |
|---|---|---|---|---|---|---|---|
| 1788527480 | 30° C | 32% | 1013.7 hPa | 0 mm | - | 638 W/m² | - |
| 1788527107 | 30.56° C | 32% | 1013.8 hPa | 0 mm | - | 651 W/m² | - |
| 1788525307 | 30° C | 34% | 1014.5 hPa | 0 mm | - | 683 W/m² | - |
| 1788521707 | 28.89° C | 36% | 1015.8 hPa | 0 mm | - | 709 W/m² | - |
| 1788521107 | 28.33° C | 36% | 1015.9 hPa | 0 mm | - | 690 W/m² | - |
| 1788520280 | 27.78° C | 37% | 1016.3 hPa | 0 mm | - | 716 W/m² | - |
| 1788518107 | 27.78° C | 38% | 1017 hPa | 0 mm | - | 690 W/m² | - |
| 1788517507 | 27.78° C | 39% | 1017.2 hPa | 0 mm | - | 619 W/m² | - |
| 1788516680 | 26.67° C | 39% | 1017.4 hPa | 0 mm | - | 677 W/m² | - |
| 1788516307 | 26.67° C | 40% | 1017.7 hPa | 0 mm | - | 664 W/m² | - |
| 1788514880 | 26.11° C | 40% | 1018 hPa | 0 mm | - | 600 W/m² | - |
| 1788514507 | 26.11° C | 41% | 1018 hPa | 0 mm | - | 638 W/m² | - |
| 1788513907 | 26.67° C | 41% | 1018.3 hPa | 0 mm | - | 612 W/m² | - |
| 1788513080 | 25.56° C | 42% | 1018.5 hPa | 0 mm | - | 535 W/m² | - |
| 1788512107 | 25.56° C | 44% | 1018.7 hPa | 0 mm | - | 548 W/m² | - |
| 1788510907 | 24.44° C | 46% | 1018.9 hPa | 0 mm | - | 503 W/m² | - |
| 1788510306 | 25° C | 46% | 1018.9 hPa | 0 mm | - | 509 W/m² | - |
| 1788509479 | 24.44° C | 47% | 1019 hPa | 0 mm | - | 471 W/m² | - |
| 1788509107 | 23.89° C | 48% | 1019.1 hPa | 0 mm | - | 438 W/m² | - |
| 1788508506 | 23.89° C | 50% | 1019.2 hPa | 0 mm | - | 406 W/m² | - |
| 1788507680 | 23.33° C | 50% | 1019.2 hPa | 0 mm | - | 393 W/m² | - |
| 1788507307 | 23.33° C | 50% | 1019.2 hPa | 0 mm | - | 374 W/m² | - |
| 1788506707 | 22.78° C | 51% | 1019.3 hPa | 0 mm | - | 290 W/m² | - |
| 1788505880 | 22.78° C | 53% | 1019.5 hPa | 0 mm | - | 355 W/m² | - |
| 1788505507 | 21.67° C | 56% | 1019.6 hPa | 0 mm | - | 277 W/m² | - |
* Rain latest hour (hover to see other rain measurements)
** Current wind speed in m/s (hover to see current wind gust speed)